TimeCDT,TemperatureF,Dew PointF,Humidity,Sea Level PressureIn,VisibilityMPH,Wind Direction,Wind SpeedMPH,Gust SpeedMPH,PrecipitationIn,Events,Conditions,WindDirDegrees,DateUTC
12:15 AM,32.0,28.4,87,30.34,10.0,SW,3.5,-,N/A,,Overcast,220,2012-10-27 05:15:00
12:36 AM,32.0,28.4,87,30.33,10.0,SW,3.5,-,N/A,,Overcast,230,2012-10-27 05:36:00
12:55 AM,32.2,28.0,85,30.33,10.0,SW,3.5,-,N/A,,Overcast,220,2012-10-27 05:55:00
1:16 AM,32.4,27.7,83,30.34,10.0,SW,4.6,-,N/A,,Mostly Cloudy,230,2012-10-27 06:16:00
1:35 AM,32.7,27.3,81,30.33,10.0,SW,4.6,-,N/A,,Mostly Cloudy,230,2012-10-27 06:35:00
1:56 AM,32.4,27.5,82,30.33,10.0,SW,3.5,-,N/A,,Overcast,230,2012-10-27 06:56:00
2:15 AM,32.2,27.5,83,30.33,10.0,WSW,3.5,-,N/A,,Overcast,240,2012-10-27 07:15:00
2:36 AM,32.4,27.3,82,30.32,10.0,SW,4.6,-,N/A,,Mostly Cloudy,230,2012-10-27 07:36:00
2:55 AM,32.0,27.5,83,30.32,10.0,Calm,Calm,-,N/A,,Mostly Cloudy,0,2012-10-27 07:55:00
3:36 AM,31.3,26.8,83,30.32,10.0,SW,3.5,-,N/A,,Scattered Clouds,220,2012-10-27 08:36:00
3:55 AM,31.1,26.6,83,30.32,10.0,SW,3.5,-,N/A,,Scattered Clouds,230,2012-10-27 08:55:00
4:15 AM,29.5,26.6,89,30.32,10.0,SSW,3.5,-,N/A,,Clear,210,2012-10-27 09:15:00
4:35 AM,29.8,26.6,88,30.32,10.0,SSW,3.5,-,N/A,,Clear,210,2012-10-27 09:35:00
4:56 AM,29.7,26.2,87,30.32,10.0,SSW,3.5,-,N/A,,Clear,210,2012-10-27 09:56:00
5:15 AM,29.3,26.1,88,30.32,10.0,Calm,Calm,-,N/A,,Clear,0,2012-10-27 10:15:00
5:35 AM,29.1,25.5,86,30.32,10.0,Calm,Calm,-,N/A,,Clear,0,2012-10-27 10:35:00
5:55 AM,28.8,25.3,87,30.33,10.0,SW,3.5,-,N/A,,Clear,220,2012-10-27 10:55:00
6:16 AM,28.0,24.8,88,30.33,10.0,Calm,Calm,-,N/A,,Clear,0,2012-10-27 11:16:00
6:55 AM,27.1,24.3,89,30.33,10.0,SSW,3.5,-,N/A,,Clear,210,2012-10-27 11:55:00
7:15 AM,27.0,24.4,90,30.33,10.0,SSW,3.5,-,N/A,,Clear,210,2012-10-27 12:15:00
7:35 AM,26.4,23.9,90,30.34,10.0,SW,3.5,-,N/A,,Clear,230,2012-10-27 12:35:00
7:55 AM,27.1,24.3,89,30.34,10.0,SW,3.5,-,N/A,,Clear,220,2012-10-27 12:55:00
8:16 AM,27.1,23.9,88,30.34,10.0,SW,3.5,-,N/A,,Clear,220,2012-10-27 13:16:00
8:35 AM,27.7,24.6,88,30.35,10.0,SSW,3.5,-,N/A,,Clear,210,2012-10-27 13:35:00
9:16 AM,30.0,25.3,83,30.35,10.0,SW,5.8,-,N/A,,Clear,230,2012-10-27 14:16:00
9:35 AM,31.1,25.9,81,30.36,10.0,SW,4.6,-,N/A,,Clear,230,2012-10-27 14:35:00
9:55 AM,31.8,26.1,79,30.36,10.0,WSW,5.8,-,N/A,,Clear,240,2012-10-27 14:55:00
10:36 AM,33.3,27.3,79,30.36,10.0,SW,4.6,-,N/A,,Clear,230,2012-10-27 15:36:00
10:55 AM,34.9,28.0,76,30.36,10.0,SW,3.5,-,N/A,,Clear,220,2012-10-27 15:55:00
11:15 AM,36.0,26.2,68,30.36,10.0,SW,4.6,-,N/A,,Clear,230,2012-10-27 16:15:00
11:35 AM,37.4,26.2,64,30.35,10.0,SW,4.6,-,N/A,,Clear,220,2012-10-27 16:35:00
11:55 AM,38.3,25.5,60,30.35,10.0,WSW,4.6,-,N/A,,Clear,240,2012-10-27 16:55:00
12:15 PM,39.4,24.3,55,30.35,10.0,SW,8.1,-,N/A,,Clear,230,2012-10-27 17:15:00
12:36 PM,40.1,25.5,56,30.34,10.0,SSW,5.8,-,N/A,,Clear,210,2012-10-27 17:36:00
12:55 PM,40.1,21.4,47,30.34,10.0,SW,9.2,-,N/A,,Clear,220,2012-10-27 17:55:00
1:16 PM,41.0,23.4,50,30.33,10.0,SW,6.9,-,N/A,,Scattered Clouds,230,2012-10-27 18:16:00
1:35 PM,41.2,23.5,50,30.33,10.0,WSW,8.1,-,N/A,,Mostly Cloudy,250,2012-10-27 18:35:00
1:56 PM,40.8,23.0,49,30.32,10.0,WSW,8.1,-,N/A,,Mostly Cloudy,250,2012-10-27 18:56:00
2:15 PM,40.3,24.1,52,30.31,10.0,WSW,8.1,-,N/A,,Mostly Cloudy,240,2012-10-27 19:15:00
2:36 PM,39.4,23.0,52,30.31,10.0,WSW,5.8,-,N/A,,Mostly Cloudy,240,2012-10-27 19:36:00
2:55 PM,39.7,23.9,53,30.30,10.0,WSW,6.9,-,N/A,,Scattered Clouds,250,2012-10-27 19:55:00
3:15 PM,40.1,23.5,52,30.29,10.0,SW,4.6,-,N/A,,Scattered Clouds,230,2012-10-27 20:15:00
3:36 PM,39.7,24.1,54,30.29,10.0,Calm,Calm,-,N/A,,Scattered Clouds,0,2012-10-27 20:36:00
3:55 PM,39.9,23.5,52,30.29,10.0,WSW,3.5,-,N/A,,Scattered Clouds,250,2012-10-27 20:55:00
4:15 PM,39.7,24.1,54,30.29,10.0,WSW,4.6,-,N/A,,Clear,240,2012-10-27 21:15:00
4:36 PM,39.6,23.7,53,30.28,10.0,Calm,Calm,-,N/A,,Clear,0,2012-10-27 21:36:00
4:55 PM,39.9,24.3,54,30.28,10.0,SW,3.5,-,N/A,,Clear,230,2012-10-27 21:55:00
5:15 PM,39.2,24.3,55,30.28,10.0,Calm,Calm,-,N/A,,Clear,0,2012-10-27 22:15:00
5:36 PM,38.8,24.3,56,30.28,10.0,Calm,Calm,-,N/A,,Clear,0,2012-10-27 22:36:00
5:55 PM,38.3,24.4,57,30.28,10.0,Calm,Calm,-,N/A,,Clear,0,2012-10-27 22:55:00
6:15 PM,37.8,25.5,61,30.28,10.0,Calm,Calm,-,N/A,,Clear,0,2012-10-27 23:15:00
6:35 PM,36.1,25.2,64,30.29,10.0,Calm,Calm,-,N/A,,Clear,0,2012-10-27 23:35:00
6:55 PM,34.3,25.5,70,30.29,10.0,Calm,Calm,-,N/A,,Clear,0,2012-10-27 23:55:00
7:15 PM,33.3,25.7,74,30.29,10.0,Calm,Calm,-,N/A,,Clear,0,2012-10-28 00:15:00
7:36 PM,33.1,25.0,72,30.30,10.0,Calm,Calm,-,N/A,,Clear,0,2012-10-28 00:36:00
7:55 PM,32.4,24.8,74,30.30,10.0,Calm,Calm,-,N/A,,Clear,0,2012-10-28 00:55:00
8:15 PM,31.6,25.0,76,30.31,10.0,Calm,Calm,-,N/A,,Clear,0,2012-10-28 01:15:00
8:55 PM,30.7,25.3,80,30.31,10.0,Calm,Calm,-,N/A,,Clear,0,2012-10-28 01:55:00
9:15 PM,29.8,24.6,81,30.32,10.0,Calm,Calm,-,N/A,,Clear,0,2012-10-28 02:15:00
9:35 PM,30.7,25.0,79,30.32,10.0,Calm,Calm,-,N/A,,Clear,0,2012-10-28 02:35:00
9:55 PM,30.7,25.5,81,30.32,10.0,Calm,Calm,-,N/A,,Scattered Clouds,0,2012-10-28 02:55:00
10:15 PM,30.2,25.7,83,30.32,10.0,SE,3.5,-,N/A,,Scattered Clouds,140,2012-10-28 03:15:00
10:35 PM,29.8,25.7,85,30.31,10.0,SE,3.5,-,N/A,,Clear,140,2012-10-28 03:35:00
11:15 PM,29.1,25.3,86,30.31,10.0,SE,3.5,-,N/A,,Clear,130,2012-10-28 04:15:00
11:55 PM,28.9,25.5,87,30.31,10.0,Calm,Calm,-,N/A,,Clear,0,2012-10-28 04:55:00